Location: Fontevrault
(47.1823°N, 0.0493°E)
Time: 14:05:27
(UTC+00:00)

Cosmos 1844 Rocket - Visible Passes

Search period start: 22 October 2021 00:00
Search period end: 01 November 2021 00:00
Orbit: 826 x 843 km, 71.0° (Epoch: 21 October)

Date Brightness Start Highest point End Pass type
(mag) Time Alt. Az. Time Alt. Az. Time Alt. Az.
22 Oct 3.6 17:56:58 10° N 18:01:46 28° NE 18:05:24 15° E visible
22 Oct 3.1 19:40:33 10° NW 19:46:00 56° WSW 19:47:06 48° SSW visible
23 Oct 3.7 17:39:47 10° N 17:44:28 26° NE 17:49:07 10° ESE visible
23 Oct 3.0 19:23:17 10° NNW 19:28:47 61° WSW 19:31:01 35° S visible
24 Oct 3.7 17:22:37 10° N 17:27:10 25° NE 17:31:42 10° E visible
24 Oct 2.9 19:06:01 10° NNW 19:11:34 67° WSW 19:15:10 22° S visible
25 Oct 2.8 18:48:46 10° NNW 18:54:20 73° WSW 18:59:38 11° SSE visible
25 Oct 5.5 20:35:51 10° W 20:37:11 11° W 20:38:31 10° WSW visible
26 Oct 2.7 18:31:31 10° NNW 18:37:06 79° WSW 18:42:40 10° SSE visible
26 Oct 5.5 20:17:57 10° WNW 20:20:02 12° W 20:22:06 10° WSW visible
27 Oct 2.7 18:14:16 10° NNW 18:19:52 86° WSW 18:25:27 10° SSE visible
27 Oct 5.5 20:00:16 10° WNW 20:02:52 13° W 20:05:28 10° SW visible
28 Oct 2.6 17:57:01 10° NNW 18:02:38 88° ENE 18:08:13 10° SSE visible
28 Oct 5.5 19:42:42 10° WNW 19:45:42 15° W 19:48:43 10° SW visible
29 Oct 2.6 17:39:47 10° NNW 17:45:24 81° ENE 17:50:58 10° SSE visible
29 Oct 5.4 19:25:11 10° WNW 19:28:32 16° W 19:31:53 10° SW visible
30 Oct 2.6 17:22:33 10° NNW 17:28:09 75° ENE 17:33:43 10° SSE visible
30 Oct 5.4 19:07:43 10° WNW 19:11:22 18° W 19:15:01 10° SW visible
31 Oct 5.3 18:50:17 10° NW 18:54:11 20° W 18:58:05 10° SW visible
